Time,TemperatureF,DewpointF,PressureIn,WindDirection,WindDirectionDegrees,WindSpeedMPH,WindSpeedGustMPH,Humidity,HourlyPrecipIn,Conditions,Clouds,dailyrainin,SoftwareType,DateUTC
2013-02-08 00:02:00,51.0,38.0,29.88,South,177,7.0,18.0,62,0.00,,,0.00,,2013-02-08 05:02:00,
2013-02-08 00:12:00,51.0,38.0,29.88,South,177,7.0,18.0,62,0.00,,,0.00,,2013-02-08 05:12:00,
2013-02-08 00:22:00,51.0,39.0,29.88,SSE,165,6.0,12.0,63,0.00,,,0.00,,2013-02-08 05:22:00,
2013-02-08 00:32:00,51.0,39.0,29.87,South,174,4.0,14.0,64,0.00,,,0.00,,2013-02-08 05:32:00,
2013-02-08 00:42:00,51.0,39.0,29.87,South,174,4.0,14.0,64,0.00,,,0.00,,2013-02-08 05:42:00,
2013-02-08 00:52:00,51.0,39.0,29.88,SSE,166,5.0,13.0,64,0.00,,,0.00,,2013-02-08 05:52:00,
2013-02-08 01:02:00,51.0,40.0,29.87,South,175,4.0,10.0,66,0.00,,,0.00,,2013-02-08 06:02:00,
2013-02-08 01:11:00,51.0,40.0,29.87,South,175,4.0,10.0,66,0.00,,,0.00,,2013-02-08 06:11:00,
2013-02-08 01:21:00,50.0,39.0,29.88,South,186,5.0,14.0,67,0.00,,,0.00,,2013-02-08 06:21:00,
2013-02-08 01:32:00,50.0,40.0,29.87,SSE,163,4.0,10.0,69,0.00,,,0.00,,2013-02-08 06:32:00,
2013-02-08 01:42:00,50.0,40.0,29.87,SSE,163,4.0,10.0,69,0.00,,,0.00,,2013-02-08 06:42:00,
2013-02-08 01:51:00,50.0,41.0,29.87,South,176,3.0,10.0,70,0.00,,,0.00,,2013-02-08 06:51:00,
2013-02-08 02:01:00,50.0,42.0,29.86,South,180,3.0,8.0,73,0.00,,,0.00,,2013-02-08 07:01:00,
2013-02-08 02:11:00,50.0,43.0,29.87,South,174,4.0,10.0,76,0.00,,,0.00,,2013-02-08 07:11:00,
2013-02-08 02:21:00,50.0,43.0,29.87,South,174,4.0,10.0,76,0.00,,,0.00,,2013-02-08 07:21:00,
2013-02-08 02:32:00,49.0,44.0,29.87,South,171,3.0,8.0,82,0.00,,,0.00,,2013-02-08 07:32:00,
2013-02-08 02:42:00,49.0,44.0,29.87,South,178,4.0,7.0,83,0.01,,,0.01,,2013-02-08 07:42:00,
2013-02-08 02:51:00,49.0,44.0,29.87,South,178,4.0,7.0,83,0.01,,,0.01,,2013-02-08 07:51:00,
2013-02-08 03:01:00,48.0,44.0,29.87,South,174,3.0,8.0,86,0.01,,,0.01,,2013-02-08 08:01:00,
2013-02-08 03:11:00,48.0,44.0,29.86,South,169,3.0,10.0,87,0.01,,,0.01,,2013-02-08 08:11:00,
2013-02-08 03:21:00,48.0,44.0,29.86,South,169,3.0,10.0,87,0.01,,,0.01,,2013-02-08 08:21:00,
2013-02-08 03:32:00,48.0,45.0,29.86,South,174,2.0,8.0,89,0.01,,,0.01,,2013-02-08 08:32:00,
2013-02-08 03:42:00,48.0,45.0,29.86,South,174,2.0,8.0,89,0.01,,,0.01,,2013-02-08 08:42:00,
2013-02-08 03:52:00,47.0,44.0,29.86,South,174,1.0,7.0,89,0.00,,,0.01,,2013-02-08 08:52:00,
2013-02-08 04:03:00,47.0,44.0,29.88,West,279,6.0,15.0,89,0.01,,,0.02,,2013-02-08 09:03:00,
2013-02-08 04:11:00,47.0,44.0,29.88,West,279,6.0,15.0,89,0.01,,,0.02,,2013-02-08 09:11:00,
2013-02-08 04:21:00,47.0,44.0,29.88,West,279,5.0,16.0,89,0.02,,,0.03,,2013-02-08 09:21:00,
2013-02-08 04:32:00,44.0,41.0,29.89,WNW,300,4.0,16.0,88,0.03,,,0.04,,2013-02-08 09:32:00,
2013-02-08 04:42:00,44.0,41.0,29.89,WNW,300,4.0,16.0,88,0.03,,,0.04,,2013-02-08 09:42:00,
2013-02-08 04:52:00,43.0,39.0,29.90,NW,319,4.0,14.0,87,0.03,,,0.04,,2013-02-08 09:52:00,
2013-02-08 05:01:00,41.0,37.0,29.91,WNW,298,6.0,16.0,87,0.02,,,0.04,,2013-02-08 10:01:00,
2013-02-08 05:12:00,41.0,37.0,29.91,WNW,298,6.0,16.0,87,0.02,,,0.04,,2013-02-08 10:12:00,
2013-02-08 05:22:00,41.0,37.0,29.92,NW,306,6.0,13.0,87,0.04,,,0.06,,2013-02-08 10:22:00,
2013-02-08 05:32:00,39.0,35.0,29.93,WNW,303,5.0,13.0,87,0.02,,,0.06,,2013-02-08 10:32:00,
2013-02-08 05:42:00,39.0,35.0,29.93,WNW,303,5.0,13.0,87,0.02,,,0.06,,2013-02-08 10:42:00,
2013-02-08 05:51:00,39.0,35.0,29.94,WNW,294,4.0,12.0,87,0.02,,,0.06,,2013-02-08 10:51:00,
2013-02-08 06:01:00,38.0,34.0,29.94,NW,314,5.0,14.0,87,0.02,,,0.06,,2013-02-08 11:01:00,
2013-02-08 06:11:00,38.0,34.0,29.94,NW,314,5.0,14.0,87,0.02,,,0.06,,2013-02-08 11:11:00,
2013-02-08 06:21:00,38.0,34.0,29.95,NW,309,6.0,13.0,87,0.00,,,0.06,,2013-02-08 11:21:00,
2013-02-08 06:32:00,38.0,34.0,29.96,WNW,293,4.0,8.0,87,0.00,,,0.06,,2013-02-08 11:32:00,
2013-02-08 06:42:00,38.0,34.0,29.96,WNW,293,4.0,8.0,87,0.00,,,0.06,,2013-02-08 11:42:00,
2013-02-08 06:52:00,37.0,34.0,29.96,WNW,303,6.0,16.0,87,0.00,,,0.06,,2013-02-08 11:52:00,
2013-02-08 07:02:00,37.0,33.0,29.98,NW,309,6.0,17.0,86,0.00,,,0.06,,2013-02-08 12:02:00,
2013-02-08 07:11:00,37.0,33.0,29.98,NW,309,6.0,17.0,86,0.00,,,0.06,,2013-02-08 12:11:00,
2013-02-08 07:22:00,36.0,32.0,29.98,WNW,293,8.0,17.0,85,0.00,,,0.06,,2013-02-08 12:22:00,
2013-02-08 07:33:00,36.0,32.0,30.01,NW,307,6.0,16.0,84,0.00,,,0.06,,2013-02-08 12:33:00,
2013-02-08 07:42:00,36.0,32.0,30.01,NW,307,6.0,16.0,84,0.00,,,0.06,,2013-02-08 12:42:00,
2013-02-08 07:52:00,36.0,32.0,30.01,NW,312,4.0,14.0,84,0.00,,,0.06,,2013-02-08 12:52:00,
2013-02-08 08:02:00,36.0,32.0,30.01,WNW,300,4.0,10.0,84,0.00,,,0.06,,2013-02-08 13:02:00,
2013-02-08 08:12:00,36.0,32.0,30.01,WNW,300,4.0,10.0,84,0.00,,,0.06,,2013-02-08 13:12:00,
2013-02-08 08:22:00,35.0,30.0,30.02,NW,320,6.0,12.0,83,0.00,,,0.06,,2013-02-08 13:22:00,
2013-02-08 08:32:00,35.0,30.0,30.03,West,264,5.0,13.0,83,0.00,,,0.06,,2013-02-08 13:32:00,
2013-02-08 08:42:00,35.0,30.0,30.03,West,264,5.0,13.0,83,0.00,,,0.06,,2013-02-08 13:42:00,
2013-02-08 08:51:00,35.0,30.0,30.04,West,268,4.0,14.0,83,0.00,,,0.06,,2013-02-08 13:51:00,
2013-02-08 09:02:00,35.0,30.0,30.05,WNW,297,10.0,15.0,83,0.00,,,0.06,,2013-02-08 14:02:00,
2013-02-08 09:11:00,35.0,30.0,30.05,WNW,297,10.0,15.0,83,0.00,,,0.06,,2013-02-08 14:11:00,
2013-02-08 09:22:00,35.0,30.0,30.06,West,266,7.0,15.0,83,0.00,,,0.06,,2013-02-08 14:22:00,
2013-02-08 09:32:00,35.0,31.0,30.07,WNW,298,3.0,11.0,84,0.00,,,0.06,,2013-02-08 14:32:00,
2013-02-08 09:42:00,35.0,31.0,30.07,WNW,298,3.0,11.0,84,0.00,,,0.06,,2013-02-08 14:42:00,
2013-02-08 09:52:00,35.0,31.0,30.07,NW,304,3.0,10.0,84,0.00,,,0.06,,2013-02-08 14:52:00,
2013-02-08 10:02:00,35.0,30.0,30.09,WNW,287,6.0,13.0,82,0.00,,,0.06,,2013-02-08 15:02:00,
2013-02-08 10:12:00,35.0,30.0,30.09,WNW,287,6.0,13.0,82,0.00,,,0.06,,2013-02-08 15:12:00,
2013-02-08 10:22:00,35.0,30.0,30.10,WNW,284,3.0,16.0,83,0.00,,,0.06,,2013-02-08 15:22:00,
2013-02-08 10:32:00,35.0,30.0,30.10,West,280,4.0,13.0,82,0.00,,,0.06,,2013-02-08 15:32:00,
2013-02-08 10:42:00,35.0,30.0,30.10,West,280,4.0,13.0,82,0.00,,,0.06,,2013-02-08 15:42:00,
2013-02-08 10:52:00,35.0,30.0,30.10,WNW,302,8.0,16.0,82,0.00,,,0.06,,2013-02-08 15:52:00,
2013-02-08 11:02:00,34.0,29.0,30.12,NW,326,4.0,15.0,82,0.00,,,0.06,,2013-02-08 16:02:00,
2013-02-08 11:11:00,34.0,29.0,30.12,NW,326,4.0,15.0,82,0.00,,,0.06,,2013-02-08 16:11:00,
2013-02-08 11:22:00,34.0,29.0,30.13,NW,318,2.0,13.0,82,0.00,,,0.06,,2013-02-08 16:22:00,
2013-02-08 11:32:00,34.0,29.0,30.14,WNW,292,6.0,14.0,82,0.00,,,0.06,,2013-02-08 16:32:00,
2013-02-08 11:42:00,34.0,29.0,30.14,WNW,292,6.0,14.0,82,0.00,,,0.06,,2013-02-08 16:42:00,
2013-02-08 11:52:00,34.0,29.0,30.14,NW,325,5.0,11.0,82,0.00,,,0.06,,2013-02-08 16:52:00,
2013-02-08 12:04:00,34.0,29.0,30.15,NW,305,4.0,14.0,82,0.00,,,0.06,,2013-02-08 17:04:00,
2013-02-08 12:12:00,34.0,29.0,30.15,NW,305,5.0,12.0,82,0.00,,,0.06,,2013-02-08 17:12:00,
2013-02-08 12:23:00,34.0,29.0,30.15,NW,305,5.0,12.0,82,0.00,,,0.06,,2013-02-08 17:23:00,
2013-02-08 12:33:00,35.0,30.0,30.15,NNW,336,3.0,14.0,81,0.00,,,0.06,,2013-02-08 17:33:00,
2013-02-08 12:42:00,35.0,30.0,30.15,NNW,336,3.0,14.0,81,0.00,,,0.06,,2013-02-08 17:42:00,
2013-02-08 12:52:00,35.0,30.0,30.16,NW,309,8.0,14.0,81,0.00,,,0.06,,2013-02-08 17:52:00,
2013-02-08 13:02:00,35.0,29.0,30.16,WNW,282,5.0,14.0,80,0.00,,,0.06,,2013-02-08 18:02:00,
2013-02-08 13:12:00,35.0,29.0,30.16,WNW,282,5.0,14.0,80,0.00,,,0.06,,2013-02-08 18:12:00,
2013-02-08 13:24:00,35.0,29.0,30.16,WNW,289,9.0,16.0,79,0.00,,,0.06,,2013-02-08 18:24:00,
2013-02-08 13:35:00,35.0,29.0,30.16,NW,326,5.0,14.0,80,0.00,,,0.06,,2013-02-08 18:35:00,
2013-02-08 13:43:00,35.0,29.0,30.16,NW,326,5.0,14.0,80,0.00,,,0.06,,2013-02-08 18:43:00,
2013-02-08 13:52:00,35.0,29.0,30.16,NW,319,5.0,13.0,79,0.00,,,0.06,,2013-02-08 18:52:00,
2013-02-08 14:02:00,35.0,29.0,30.17,NNW,327,4.0,11.0,79,0.00,,,0.06,,2013-02-08 19:02:00,
2013-02-08 14:11:00,35.0,29.0,30.17,NNW,327,4.0,11.0,79,0.00,,,0.06,,2013-02-08 19:11:00,
2013-02-08 14:22:00,35.0,29.0,30.17,WNW,294,4.0,9.0,79,0.00,,,0.06,,2013-02-08 19:22:00,
2013-02-08 14:32:00,35.0,29.0,30.18,NW,305,3.0,12.0,78,0.00,,,0.06,,2013-02-08 19:32:00,
2013-02-08 14:42:00,35.0,29.0,30.18,NW,305,3.0,12.0,78,0.00,,,0.06,,2013-02-08 19:42:00,
2013-02-08 14:52:00,35.0,29.0,30.18,NNW,332,4.0,10.0,78,0.00,,,0.06,,2013-02-08 19:52:00,
2013-02-08 15:02:00,36.0,30.0,30.18,NW,321,3.0,8.0,78,0.00,,,0.06,,2013-02-08 20:02:00,
2013-02-08 15:12:00,36.0,30.0,30.18,NW,321,3.0,8.0,78,0.00,,,0.06,,2013-02-08 20:12:00,
2013-02-08 15:22:00,36.0,29.0,30.18,NW,320,3.0,8.0,77,0.00,,,0.06,,2013-02-08 20:22:00,
2013-02-08 15:32:00,36.0,30.0,30.19,NW,311,3.0,8.0,78,0.00,,,0.06,,2013-02-08 20:32:00,
2013-02-08 15:42:00,36.0,30.0,30.19,NW,311,3.0,8.0,78,0.00,,,0.06,,2013-02-08 20:42:00,
2013-02-08 15:52:00,36.0,29.0,30.19,North,359,5.0,13.0,77,0.00,,,0.06,,2013-02-08 20:52:00,
2013-02-08 16:02:00,36.0,29.0,30.20,West,279,3.0,9.0,77,0.00,,,0.06,,2013-02-08 21:02:00,
2013-02-08 16:11:00,36.0,29.0,30.20,West,279,3.0,9.0,77,0.00,,,0.06,,2013-02-08 21:11:00,
2013-02-08 16:22:00,36.0,29.0,30.21,NW,326,4.0,10.0,76,0.00,,,0.06,,2013-02-08 21:22:00,
2013-02-08 16:32:00,36.0,29.0,30.22,NW,321,7.0,12.0,74,0.00,,,0.06,,2013-02-08 21:32:00,
2013-02-08 16:42:00,36.0,29.0,30.22,NW,321,7.0,12.0,74,0.00,,,0.06,,2013-02-08 21:42:00,
2013-02-08 16:52:00,36.0,29.0,30.22,NNW,333,2.0,7.0,75,0.00,,,0.06,,2013-02-08 21:52:00,
2013-02-08 17:02:00,36.0,29.0,30.22,NW,320,4.0,8.0,74,0.00,,,0.06,,2013-02-08 22:02:00,
2013-02-08 17:11:00,36.0,29.0,30.22,NW,320,4.0,8.0,74,0.00,,,0.06,,2013-02-08 22:11:00,
2013-02-08 17:22:00,36.0,29.0,30.23,NW,311,4.0,10.0,74,0.00,,,0.06,,2013-02-08 22:22:00,
2013-02-08 17:32:00,35.0,28.0,30.16,NW,314,4.0,10.0,74,-99.99,,,-99.99,,2013-02-08 22:32:00,
2013-02-08 17:42:00,35.0,28.0,30.16,NW,314,4.0,10.0,74,-99.99,,,-99.99,,2013-02-08 22:42:00,
2013-02-08 17:52:00,35.0,28.0,30.17,NNW,336,5.0,10.0,74,-99.99,,,-99.99,,2013-02-08 22:52:00,
2013-02-08 18:02:00,35.0,28.0,30.18,NNW,329,6.0,11.0,74,-99.99,,,-99.99,,2013-02-08 23:02:00,
2013-02-08 18:11:00,35.0,28.0,30.18,NNW,329,6.0,11.0,74,-99.99,,,-99.99,,2013-02-08 23:11:00,
2013-02-08 18:21:00,35.0,28.0,30.19,NNW,329,4.0,7.0,74,-99.99,,,-99.99,,2013-02-08 23:21:00,
2013-02-08 18:32:00,35.0,28.0,30.19,NNW,342,5.0,9.0,74,0.00,,,-99.99,,2013-02-08 23:32:00,
2013-02-08 18:42:00,35.0,28.0,30.19,NNW,342,5.0,9.0,74,0.00,,,-99.99,,2013-02-08 23:42:00,
2013-02-08 18:52:00,35.0,28.0,30.20,NNW,342,1.0,5.0,75,0.00,,,-99.99,,2013-02-08 23:52:00,
2013-02-08 19:02:00,35.0,28.0,30.21,NNW,332,1.0,5.0,75,0.00,,,-99.99,,2013-02-09 00:02:00,
2013-02-08 19:11:00,35.0,28.0,30.21,NNW,332,1.0,5.0,75,0.00,,,-99.99,,2013-02-09 00:11:00,
2013-02-08 19:22:00,35.0,28.0,30.22,NNW,332,2.0,5.0,75,0.00,,,-99.99,,2013-02-09 00:22:00,
2013-02-08 19:32:00,35.0,28.0,30.22,NNW,332,3.0,5.0,76,0.00,,,-99.99,,2013-02-09 00:32:00,
2013-02-08 19:42:00,35.0,28.0,30.22,NNW,332,3.0,5.0,76,0.00,,,-99.99,,2013-02-09 00:42:00,
2013-02-08 19:52:00,35.0,28.0,30.22,NNW,332,3.0,6.0,75,0.00,,,-99.99,,2013-02-09 00:52:00,
2013-02-08 20:02:00,35.0,28.0,30.24,NNW,333,2.0,5.0,76,0.00,,,-99.99,,2013-02-09 01:02:00,
2013-02-08 20:11:00,35.0,28.0,30.24,NNW,333,2.0,5.0,76,0.00,,,-99.99,,2013-02-09 01:11:00,
2013-02-08 20:22:00,34.0,27.0,30.25,NNW,332,3.0,8.0,75,0.00,,,-99.99,,2013-02-09 01:22:00,
2013-02-08 20:32:00,34.0,27.0,30.26,NW,326,4.0,13.0,74,0.00,,,-99.99,,2013-02-09 01:32:00,
2013-02-08 20:42:00,34.0,27.0,30.26,NW,326,4.0,13.0,74,0.00,,,-99.99,,2013-02-09 01:42:00,
2013-02-08 20:52:00,34.0,27.0,30.25,NNW,330,1.0,7.0,74,0.00,,,-99.99,,2013-02-09 01:52:00,
2013-02-08 21:01:00,33.0,26.0,30.25,North,-999,-999.0,-999.0,74,0.00,,,-99.99,,2013-02-09 02:01:00,
2013-02-08 21:11:00,33.0,25.0,30.26,North,356,4.0,9.0,73,0.00,,,-99.99,,2013-02-09 02:11:00,
2013-02-08 21:21:00,33.0,25.0,30.26,North,356,4.0,9.0,73,0.00,,,-99.99,,2013-02-09 02:21:00,
2013-02-08 21:32:00,33.0,25.0,30.27,NNW,342,3.0,8.0,73,0.00,,,-99.99,,2013-02-09 02:32:00,
2013-02-08 21:42:00,33.0,25.0,30.27,NNW,342,3.0,8.0,73,0.00,,,-99.99,,2013-02-09 02:42:00,
2013-02-08 21:52:00,33.0,25.0,30.27,North,349,4.0,9.0,73,0.00,,,-99.99,,2013-02-09 02:52:00,
2013-02-08 22:02:00,33.0,25.0,30.27,North,354,3.0,10.0,73,0.00,,,-99.99,,2013-02-09 03:02:00,
2013-02-08 22:11:00,33.0,25.0,30.27,North,354,3.0,10.0,73,0.00,,,-99.99,,2013-02-09 03:11:00,
2013-02-08 22:22:00,33.0,25.0,30.28,North,354,4.0,9.0,73,0.00,,,-99.99,,2013-02-09 03:22:00,
2013-02-08 22:32:00,32.0,24.0,30.28,North,358,4.0,8.0,72,0.00,,,-99.99,,2013-02-09 03:32:00,
2013-02-08 22:42:00,32.0,24.0,30.28,North,358,4.0,8.0,72,0.00,,,-99.99,,2013-02-09 03:42:00,
2013-02-08 22:52:00,32.0,24.0,30.27,North,353,4.0,9.0,72,0.00,,,-99.99,,2013-02-09 03:52:00,
2013-02-08 23:03:00,32.0,24.0,30.27,North,353,4.0,8.0,73,0.00,,,-99.99,,2013-02-09 04:03:00,
2013-02-08 23:12:00,32.0,24.0,30.27,NNW,348,4.0,10.0,73,0.00,,,-99.99,,2013-02-09 04:12:00,
2013-02-08 23:23:00,32.0,24.0,30.27,NNW,348,4.0,10.0,73,0.00,,,-99.99,,2013-02-09 04:23:00,
2013-02-08 23:32:00,31.0,23.0,30.27,NNW,346,3.0,10.0,72,0.00,,,-99.99,,2013-02-09 04:32:00,
2013-02-08 23:42:00,31.0,23.0,30.27,NNW,346,3.0,10.0,72,0.00,,,-99.99,,2013-02-09 04:42:00,
2013-02-08 23:52:00,31.0,23.0,30.27,North,353,2.0,9.0,72,0.00,,,-99.99,,2013-02-09 04:52:00,